TimeMST,TemperatureF,Dew PointF,Humidity,Sea Level PressureIn,VisibilityMPH,Wind Direction,Wind SpeedMPH,Gust SpeedMPH,PrecipitationIn,Events,Conditions,WindDirDegrees,DateUTC
12:53 AM,16.0,10.0,77,30.55,10.0,Calm,Calm,-,N/A,,Clear,0,2012-11-23 07:53:00
1:53 AM,16.0,9.0,74,30.55,10.0,Calm,Calm,-,N/A,,Clear,0,2012-11-23 08:53:00
2:53 AM,15.1,9.0,77,30.58,10.0,West,3.5,-,N/A,,Clear,280,2012-11-23 09:53:00
3:53 AM,10.9,5.0,77,30.60,10.0,Calm,Calm,-,N/A,,Clear,0,2012-11-23 10:53:00
4:53 AM,12.9,8.1,81,30.61,10.0,Calm,Calm,-,N/A,,Clear,0,2012-11-23 11:53:00
5:53 AM,10.9,6.1,81,30.62,10.0,NE,5.8,-,N/A,,Clear,40,2012-11-23 12:53:00
6:53 AM,12.0,7.0,80,30.63,10.0,ENE,4.6,-,N/A,,Clear,60,2012-11-23 13:53:00
7:53 AM,10.9,6.1,81,30.65,10.0,Calm,Calm,-,N/A,,Clear,0,2012-11-23 14:53:00
8:53 AM,19.0,10.9,71,30.65,10.0,Calm,Calm,-,N/A,,Clear,0,2012-11-23 15:53:00
9:53 AM,24.1,14.0,65,30.64,10.0,SSW,3.5,-,N/A,,Clear,210,2012-11-23 16:53:00
10:53 AM,30.0,14.0,51,30.60,10.0,West,3.5,-,N/A,,Clear,270,2012-11-23 17:53:00
11:53 AM,36.0,12.9,39,30.54,10.0,Variable,3.5,-,N/A,,Clear,0,2012-11-23 18:53:00
12:53 PM,39.0,8.1,28,30.50,10.0,SW,4.6,-,N/A,,Clear,220,2012-11-23 19:53:00
1:53 PM,42.1,8.1,25,30.46,10.0,Calm,Calm,-,N/A,,Clear,0,2012-11-23 20:53:00
2:53 PM,42.1,8.1,25,30.44,10.0,Calm,Calm,-,N/A,,Clear,0,2012-11-23 21:53:00
3:53 PM,41.0,8.1,26,30.46,10.0,South,3.5,-,N/A,,Clear,190,2012-11-23 22:53:00
4:53 PM,36.0,9.0,33,30.46,10.0,SW,3.5,-,N/A,,Clear,230,2012-11-23 23:53:00
5:53 PM,28.9,8.1,41,30.50,10.0,Calm,Calm,-,N/A,,Clear,0,2012-11-24 00:53:00
6:53 PM,26.1,10.0,51,30.51,10.0,East,3.5,-,N/A,,Clear,90,2012-11-24 01:53:00
7:53 PM,19.0,12.0,74,30.54,10.0,NNW,4.6,-,N/A,,Clear,330,2012-11-24 02:53:00
8:53 PM,19.9,12.9,74,30.48,10.0,East,6.9,-,N/A,,Clear,90,2012-11-24 03:53:00
9:53 PM,17.1,10.9,77,30.46,10.0,North,4.6,-,N/A,,Clear,360,2012-11-24 04:53:00
10:53 PM,19.0,12.0,74,30.40,10.0,West,3.5,-,N/A,,Clear,280,2012-11-24 05:53:00
11:53 PM,19.0,12.0,74,30.36,10.0,Calm,Calm,-,N/A,,Clear,0,2012-11-24 06:53:00